Homestead AFB, FL

2:53 AM EDT on October 17, 2017 (GMT -0400)
Dade County-Homestead Regional

Weather History for KHST - October, 2012

Change the Weather History Date:

Tuesday, October 16, 2012

  Actual Average Record
Temperature  
Mean Temperature 80 °F -  
Max Temperature 87 °F 85 °F 90 °F (1931)
Min Temperature 74 °F 67 °F 51 °F (1955)
Cooling Degree Days 15    
Growing Degree Days 30 (Base 50)    
Moisture  
Dew Point 73 °F    
Average Humidity 79    
Maximum Humidity 92    
Minimum Humidity 57    
Precipitation  
Precipitation 0.01 in - - ()
Sea Level Pressure  
Sea Level Pressure 29.83 in    
Wind  
Wind Speed 8 mph (NNE)    
Max Wind Speed 13 mph    
Max Gust Speed -    
Visibility 10 miles    
Events Rain    
Averages and records for this station are not official NWS values.
T = Trace of Precipitation, MM = Missing Value Source: NWS Daily Summary

Daily Weather History Graph

Daily Weather History Graph

Search for Another Location

Airport or City:

Trip Planner

Search our weather history database for the weather conditions in past years. The results will help you decide how hot, cold, wet, or windy it might be!

Date:

Astronomy

Oct. 16, 2012 Rise Set
Actual Time 7:20 AM EDT 6:52 PM EDT
Civil Twilight 6:57 AM EDT 7:15 PM EDT
Nautical Twilight 6:30 AM EDT 7:42 PM EDT
Astronomical Twilight 6:04 AM EDT 8:09 PM EDT
Moon 8:29 AM EDT (10/16) 7:50 PM EDT (10/16)
Length of Visible Light 12h 18m
Length of Day
11h 31m
New Moon, 2% of the Moon is Illuminated
Oct 16
New Moon
Oct 21
First Quarter
Oct 29
Full
Nov 6
Last Quarter
Nov 13
New

Hourly Weather History & Observations

Time (EDT) Temp. Heat Index Dew Point Humidity Pressure Visibility Wind Dir Wind Speed Gust Speed Precip Events Conditions
12:55 AM 76.3 °F - 72.1 °F 87% 29.85 in 10.0 mi NNW 6.9 mph - N/A   Clear
1:55 AM 75.4 °F - 72.0 °F 89% 29.83 in 10.0 mi NW 6.9 mph - N/A   Clear
2:55 AM 75.0 °F - 72.0 °F 90% 29.82 in 10.0 mi NW 5.8 mph - N/A   Clear
3:55 AM 75.0 °F - 72.3 °F 91% 29.81 in 10.0 mi NNW 8.1 mph - N/A   Clear
4:55 AM 74.8 °F - 72.1 °F 91% 29.81 in 10.0 mi NNW 6.9 mph - N/A   Clear
5:55 AM 74.3 °F - 72.0 °F 92% 29.82 in 10.0 mi NNW 5.8 mph - N/A   Clear
6:55 AM 74.3 °F - 71.8 °F 92% 29.83 in 10.0 mi NNW 6.9 mph - N/A   Clear
7:55 AM 74.3 °F - 72.0 °F 92% 29.83 in 10.0 mi NNW 6.9 mph - N/A   Clear
8:55 AM 76.6 °F - 73.0 °F 89% 29.85 in 10.0 mi North 8.1 mph - N/A   Clear
9:55 AM 79.9 °F - 73.4 °F 80% 29.86 in 10.0 mi North 10.4 mph - N/A   Clear
10:35 AM 82.4 °F 88.2 °F 73.4 °F 74% 29.87 in 10.0 mi North 10.4 mph - N/A   Light Drizzle
10:38 AM 82.4 °F 87.2 °F 71.6 °F 70% 29.87 in 10.0 mi NNW 9.2 mph - N/A   Clear
10:55 AM 83.3 °F 88.4 °F 72.0 °F 68% 29.86 in 10.0 mi NNE 10.4 mph - 0.00 in   Clear
11:55 AM 85.1 °F 90.4 °F 71.1 °F 63% 29.86 in 10.0 mi NNE 8.1 mph - N/A   Clear
12:55 PM 86.7 °F 91.4 °F 70.0 °F 57% 29.85 in 10.0 mi NE 11.5 mph - N/A   Clear
1:55 PM 86.5 °F 92.5 °F 71.4 °F 61% 29.82 in 10.0 mi ENE 12.7 mph - N/A   Clear
2:55 PM 86.0 °F 91.8 °F 71.6 °F 62% 29.80 in 10.0 mi East 11.5 mph - N/A   Clear
3:55 PM 85.5 °F 91.8 °F 72.5 °F 65% 29.80 in 10.0 mi East 11.5 mph - N/A   Clear
4:55 PM 84.2 °F 91.6 °F 74.1 °F 72% 29.79 in 10.0 mi East 9.2 mph - N/A   Clear
5:55 PM 82.4 °F 88.7 °F 74.1 °F 76% 29.80 in 10.0 mi ENE 9.2 mph - N/A   Partly Cloudy
6:55 PM 81.1 °F 86.2 °F 73.2 °F 77% 29.81 in 10.0 mi ENE 5.8 mph - N/A   Clear
7:55 PM 79.5 °F - 73.8 °F 82% 29.82 in 10.0 mi East 4.6 mph - N/A   Clear
8:55 PM 79.0 °F - 73.4 °F 83% 29.83 in 10.0 mi East 4.6 mph - N/A   Clear
9:55 PM 79.2 °F - 72.7 °F 80% 29.84 in 10.0 mi East 5.8 mph - N/A   Partly Cloudy
10:55 PM 79.0 °F - 72.5 °F 80% 29.86 in 10.0 mi Calm Calm - N/A   Scattered Clouds
11:00 PM 78.8 °F - 73.4 °F 83% 29.86 in 10.0 mi NNE 6.9 mph - N/A Rain Light Rain
11:04 PM 78.8 °F - 73.4 °F 83% 29.85 in 10.0 mi North 8.1 mph - N/A Rain Light Rain
11:27 PM 78.8 °F - 75.2 °F 89% 29.85 in 10.0 mi ENE 4.6 mph - N/A   Partly Cloudy
11:55 PM 78.6 °F - 73.8 °F 85% 29.86 in 10.0 mi ENE 3.5 mph - 0.01 in   Clear